Terminal Aerodrome Forecast
Issued by NWS

Home | Current Version | Previous Version | Text Only | Print | Product List | Glossary On
Versions: 1 2 3 4 5 6 7 8 9 10 11 12 13 14
000
FTAK31 PAJN 252300
TAFAWG
TAF
PAWG 252325Z 2600/2624 33005KT P6SM FEW030 SCT050 BKN120
     FM260900 VRB03KT P6SM BKN030
     FM261800 28006KT P6SM SCT030 BKN060
      AMD LTD TO CLD VIS AND WIND 2606/2615=

USA.gov is the U.S. government's official web portal to all federal, state and local government web resources and services.